Simultaneous Nadir Overpasses (SNOs) Predictions

Prediction of SNOs between GOES-15 and METOP-A Satellite Orbit:

Table of predicted SNOs for the next 14.0 days since TLE Epoch: 3/11/2022
Index Date Time (GOES-15) GOES-15 Lat,Lon METOP-A Lat,Lon Distance(km) Time Diff (sec)
1 03/13/2022 16:37:52 0.02,-127.92 -0.33,-126.27 187.72 80
2 03/14/2022 04:50:43 -0.01,-127.92 -0.46,-130.00 236.90 80
3 03/16/2022 16:39:32 0.02,-128.02 -0.31,-126.54 168.23 80
4 03/17/2022 04:52:16 -0.01,-128.02 -0.50,-130.25 253.40 80
5 03/19/2022 16:41:11 0.02,-128.11 -0.27,-126.80 148.83 80
6 03/20/2022 04:53:50 -0.01,-128.11 -0.53,-130.49 270.68 80
7 03/22/2022 16:42:48 0.01,-128.19 -0.24,-127.06 128.62 80
8 03/23/2022 04:55:23 -0.01,-128.19 -0.56,-130.73 289.78 80
9 03/25/2022 16:44:22 0.00,-128.25 -0.20,-127.31 107.22 80
